Temp
72 75 73 73 62 57 49 55 62 65 67 69 72 71 70 72 71 63 74 79 77 76 77 78 79 79 79 79 78 78 78 78 79 79 79 79 78 78 78 78 78 79 80 80 80 80 80 80 80
74 77 72 64 55 51 53 59 60 64 70 72 72 71 72 70 77 75 74 78 78 76 76 76 79 79 79 78 78 78 78 78 78 78 78 78 78 78 78 78 79 80 80 80 80 80 80 80 80
76 75 65 56 49 52 57 62 60 69 73 71 70 75 73 73 80 78 77 78 76 75 75 76 78 78 78 78 78 78 78 78 78 78 78 78 78 78 78 78 78 80 80 80 80 80 80 79 79
72 69 62 52 50 59 61 67 66 68 74 74 72 71 76 80 78 77 78 78 76 75 75 78 78 78 78 78 78 78 78 78 78 78 78 78 78 77 77 78 78 79 80 80 80 79 79 78 78
68 61 51 45 52 61 65 67 71 69 68 72 73 69 72 79 78 77 76 78 74 75 74 77 78 78 78 78 78 78 78 77 78 78 78 78 77 77 77 78 78 79 79 80 79 78 78 77 77
62 58 46 45 54 62 66 68 69 72 71 73 74 71 72 77 76 75 77 75 75 74 75 78 78 78 78 78 78 77 77 77 77 77 78 77 77 77 77 77 78 78 78 79 79 78 77 76 76
57 52 48 45 52 58 65 69 64 67 71 69 74 68 72 77 78 76 75 74 74 74 75 78 78 77 78 77 77 77 77 77 77 77 77 77 77 76 77 77 77 77 78 78 77 77 76 76 76
57 53 48 51 53 55 64 66 65 65 70 82 79 68 67 76 75 76 74 72 71 73 76 77 78 75 74 75 77 77 77 77 76 76 76 76 76 76 76 76 76 77 77 77 77 76 76 76 76
59 46 43 46 52 57 63 60 65 70 69 72 77 76 79 76 74 72 70 69 70 72 75 78 78 76 74 74 76 77 78 77 77 77 76 75 74 74 75 75 76 77 77 77 76 76 76 76 76
55 44 48 55 56 58 59 60 64 64 67 67 72 79 78 77 72 72 70 69 69 70 73 76 78 77 73 76 74 74 75 75 74 74 74 72 71 71 73 74 76 77 77 77 76 76 76 76 72
52 49 54 59 61 62 60 62 65 62 63 67 68 70 75 73 71 69 70 71 72 73 73 75 76 76 74 75 75 75 74 76 76 75 75 71 71 71 72 70 71 71 75 72 74 74 73 72 71
50 58 59 59 63 60 60 64 62 63 66 72 74 74 74 73 71 69 69 70 71 72 73 73 74 74 75 74 76 76 74 76 76 76 75 72 69 68 68 68 68 68 68 69 69 70 70 71 71
50 54 59 62 60 60 63 61 61 61 69 72 73 71 73 72 71 71 71 70 69 71 73 72 73 73 73 73 76 76 75 76 77 76 75 72 69 68 68 67 67 67 67 67 67 68 69 69 70
54 54 57 59 59 58 58 61 60 64 68 70 69 69 69 71 72 69 70 71 68 71 72 73 72 72 72 73 74 74 75 77 76 76 74 72 71 69 67 67 67 67 67 67 68 68 68 68 69
53 49 54 56 59 58 58 57 57 65 67 66 67 69 69 69 70 70 72 71 72 71 73 72 72 73 72 73 73 72 74 76 74 74 72 72 71 70 69 69 68 69 68 68 68 68 68 68 69
47 45 39 52 55 60 59 49 62 63 60 61 63 65 67 69 70 69 70 69 69 68 69 72 76 73 72 73 73 72 71 73 73 72 72 72 71 71 69 69 70 71 68 68 68 68 68 68 68
42 37 39 49 55 55 54 48 60 62 62 60 60 61 62 63 66 67 68 67 68 68 68 67 71 71 72 72 74 72 70 71 72 72 72 72 72 72 69 69 69 69 69 68 69 69 69 68 67
38 39 43 44 53 51 49 49 56 60 57 59 58 59 59 60 63 66 66 65 66 67 66 66 69 71 71 72 69 69 68 68 68 69 70 72 72 73 71 70 69 70 70 69 68 69 68 69 69
46 44 43 48 56 49 49 49 53 57 56 57 58 58 59 59 62 64 65 63 62 62 63 64 65 66 69 68 69 68 69 68 68 69 71 72 71 72 70 72 71 70 70 69 69 70 69 69 70
47 43 42 48 53 49 48 47 52 54 56 58 59 59 59 60 61 64 63 63 61 60 60 61 63 64 69 70 70 68 69 68 70 69 70 71 72 71 71 70 70 70 69 69 69 69 68 68 69
46 42 43 45 51 49 47 44 49 55 54 58 58 59 58 59 60 61 62 63 61 60 59 60 61 62 64 66 64 62 64 66 66 67 68 70 71 72 72 71 69 69 69 68 68 66 67 65 67
42 51 52 49 43 36 46 37 44 50 53 55 58 56 57 59 59 58 60 59 61 63 59 60 60 62 64 64 65 64 64 63 64 65 67 68 70 70 70 70 70 68 67 66 66 68 67 65 66
48 54 50 48 41 36 40 32 40 45 47 52 56 57 57 58 58 59 60 60 61 62 60 59 59 59 60 63 65 64 62 61 61 62 64 65 67 69 70 68 69 69 67 65 65 65 66 67 66
56 48 44 38 36 29 39 36 37 42 48 52 57 57 57 57 58 60 62 60 60 59 60 58 58 58 58 59 59 60 60 59 58 59 61 61 63 66 68 70 69 67 67 66 65 65 67 66 66
47 39 29 28 28 32 39 35 38 47 54 52 52 54 55 55 52 55 57 59 61 55 57 59 60 59 57 58 58 58 58 58 58 58 58 59 61 62 64 68 67 68 68 68 68 68 66 65 65
45 42 32 25 26 34 39 31 38 49 53 53 53 53 54 54 56 55 55 54 55 55 55 58 59 56 57 58 59 59 59 59 59 59 58 59 59 61 63 64 65 68 69 70 69 68 67 67 66
44 38 44 35 32 22 32 38 45 49 50 51 52 52 51 51 53 54 55 55 54 54 54 55 57 58 58 60 60 59 60 58 58 59 59 60 60 62 62 64 64 66 67 68 68 67 67 66 66
49 51 37 34 26 24 28 31 35 43 45 48 49 49 50 52 55 54 54 54 57 56 55 56 56 57 58 58 59 60 59 59 60 59 60 60 61 62 64 64 65 65 66 67 67 66 67 67 66
43 38 38 37 34 25 22 28 41 43 44 44 45 47 47 50 53 55 54 53 53 55 56 58 57 57 57 57 58 57 58 59 60 60 60 60 61 62 63 64 64 65 65 65 65 65 66 66 66
45 41 38 30 27 29 28 29 49 46 45 44 45 47 49 50 51 51 55 54 54 55 56 56 58 60 62 62 60 59 60 59 58 59 59 60 61 62 63 63 64 65 65 65 64 65 66 65 65
MSLP
1009.16 1008.49 1008.50 1008.66 1009.96 1010.72 1010.40 1009.76 1008.95 1008.32 1007.39 1006.40 1006.27 1005.86 1005.81 1005.86 1006.16 1006.99 1006.45 1006.78 1007.18 1007.62 1008.12 1008.36 1008.94 1009.41 1009.55 1009.68 1009.83 1010.09 1010.17 1010.54 1011.16 1011.52 1011.75 1012.10 1012.33 1012.51 1012.94 1013.22 1013.46 1013.49 1013.52 1013.73 1014.00 1014.19 1014.41 1014.56 1014.82
1009.22 1008.69 1009.06 1009.80 1010.81 1011.10 1010.40 1009.50 1009.09 1008.39 1007.36 1006.17 1005.90 1005.72 1005.63 1005.86 1005.79 1006.05 1006.44 1006.73 1007.25 1007.73 1008.42 1009.01 1009.02 1009.54 1010.01 1010.00 1010.11 1010.40 1010.80 1010.86 1011.18 1011.66 1012.06 1012.38 1012.63 1012.82 1013.12 1013.37 1013.51 1013.67 1013.78 1013.96 1014.16 1014.45 1014.58 1014.66 1014.84
1009.18 1009.36 1010.24 1011.11 1011.48 1011.03 1010.16 1009.23 1008.88 1008.12 1006.86 1006.50 1005.74 1005.50 1005.50 1005.74 1005.44 1005.70 1005.92 1006.59 1007.17 1007.83 1008.20 1008.88 1009.28 1009.46 1009.91 1010.19 1010.31 1010.64 1010.81 1011.30 1011.76 1011.92 1012.28 1012.57 1012.78 1013.08 1013.29 1013.45 1013.67 1013.90 1013.95 1014.16 1014.55 1014.71 1014.84 1014.94 1014.94
1009.62 1010.38 1011.74 1011.77 1011.70 1010.54 1009.68 1009.23 1008.86 1008.27 1006.82 1006.29 1005.84 1005.73 1005.80 1005.41 1005.65 1005.79 1006.25 1006.90 1007.65 1008.12 1008.39 1008.60 1008.94 1009.35 1009.59 1010.20 1010.44 1010.60 1010.83 1011.01 1011.68 1012.25 1012.56 1012.82 1012.97 1013.17 1013.47 1013.61 1013.72 1013.87 1014.18 1014.39 1014.70 1014.98 1015.10 1015.12 1015.16
1010.29 1011.64 1012.40 1012.46 1011.64 1010.58 1009.43 1008.83 1008.81 1008.44 1007.56 1006.78 1006.46 1005.98 1005.64 1005.66 1005.69 1005.92 1006.34 1006.94 1007.48 1008.22 1008.52 1009.06 1009.32 1009.45 1009.58 1009.93 1010.59 1010.82 1010.90 1010.82 1011.21 1011.75 1012.28 1012.80 1013.07 1013.22 1013.42 1013.60 1013.85 1013.96 1014.18 1014.48 1014.79 1015.08 1015.25 1015.40 1015.43
1011.44 1012.32 1013.13 1012.80 1011.73 1010.45 1009.54 1008.86 1008.30 1008.33 1007.96 1007.04 1006.82 1006.34 1005.76 1005.19 1005.74 1006.17 1006.30 1006.80 1007.57 1008.19 1008.59 1008.93 1009.47 1009.80 1009.83 1010.08 1010.45 1011.11 1011.36 1011.08 1011.12 1011.35 1011.78 1012.22 1012.76 1013.02 1013.23 1013.53 1013.80 1014.01 1014.21 1014.45 1014.72 1014.89 1015.11 1015.36 1015.58
1011.80 1012.88 1013.00 1012.92 1012.00 1010.59 1009.67 1008.97 1008.75 1008.74 1008.56 1007.50 1006.88 1006.73 1006.28 1005.66 1005.42 1006.16 1006.79 1007.26 1007.46 1008.05 1008.54 1009.05 1009.47 1009.93 1010.16 1010.30 1010.46 1010.88 1011.34 1011.72 1011.62 1011.64 1011.86 1012.10 1012.30 1012.71 1013.01 1013.32 1013.54 1013.77 1014.09 1014.42 1014.59 1014.72 1014.92 1015.13 1015.32
1011.88 1013.04 1013.19 1012.93 1012.02 1010.55 1009.71 1009.37 1009.01 1008.80 1008.03 1007.15 1006.95 1006.76 1006.58 1005.58 1005.71 1006.09 1006.84 1007.58 1008.09 1008.27 1008.62 1009.09 1009.42 1009.84 1010.20 1010.66 1010.67 1010.93 1011.29 1011.59 1011.84 1011.77 1012.02 1012.36 1012.51 1012.60 1012.84 1013.12 1013.31 1013.52 1013.82 1014.16 1014.45 1014.63 1014.83 1015.04 1015.13
1011.98 1013.18 1013.24 1012.71 1012.16 1010.58 1009.91 1009.74 1009.11 1008.58 1008.23 1008.15 1007.24 1006.95 1006.19 1006.06 1006.24 1006.60 1007.36 1007.92 1008.32 1008.60 1008.63 1009.02 1009.37 1009.57 1010.01 1010.48 1010.79 1011.07 1011.46 1011.52 1011.85 1012.07 1012.01 1012.25 1012.46 1012.73 1012.95 1013.10 1013.28 1013.54 1013.80 1014.04 1014.22 1014.45 1014.66 1014.87 1014.96
1011.77 1012.84 1012.66 1012.06 1011.31 1010.46 1010.46 1010.08 1009.24 1008.94 1008.52 1007.78 1007.60 1006.68 1006.26 1006.34 1007.13 1006.89 1007.18 1007.71 1008.07 1008.14 1008.32 1008.81 1009.27 1009.65 1009.84 1010.18 1010.66 1010.99 1011.56 1011.84 1011.93 1012.14 1012.35 1012.37 1012.53 1012.74 1012.94 1013.21 1013.32 1013.58 1013.95 1014.22 1014.30 1014.39 1014.44 1014.55 1014.85
1011.99 1012.22 1011.75 1011.23 1010.89 1010.43 1010.26 1009.64 1009.23 1008.84 1008.58 1007.98 1007.72 1007.48 1006.97 1006.94 1007.05 1007.48 1007.20 1007.21 1007.04 1007.62 1008.14 1008.44 1008.96 1009.32 1009.88 1010.08 1010.31 1010.82 1011.08 1011.59 1011.94 1012.01 1012.39 1012.60 1012.73 1012.74 1012.87 1013.10 1013.27 1013.60 1013.95 1014.28 1014.46 1014.56 1014.62 1014.57 1014.74
1011.83 1011.44 1011.21 1010.76 1010.39 1010.35 1009.97 1009.39 1008.94 1008.94 1008.48 1007.65 1007.31 1007.22 1007.36 1007.20 1007.33 1007.39 1007.11 1007.04 1007.42 1007.58 1007.77 1008.13 1008.56 1009.03 1009.52 1009.76 1010.16 1010.22 1010.92 1010.87 1011.42 1011.86 1011.96 1012.44 1012.70 1013.00 1012.99 1013.10 1013.25 1013.49 1013.96 1014.29 1014.49 1014.55 1014.50 1014.67 1014.67
1011.30 1011.17 1010.92 1010.48 1010.36 1010.01 1009.40 1009.24 1008.65 1008.07 1007.90 1007.14 1006.91 1007.01 1007.08 1007.02 1007.06 1006.96 1006.92 1006.88 1007.28 1007.46 1007.28 1007.45 1008.12 1008.59 1009.00 1009.49 1009.72 1010.01 1010.22 1010.63 1010.75 1011.24 1011.72 1011.95 1012.28 1012.67 1012.90 1013.18 1013.44 1013.46 1013.75 1014.08 1014.37 1014.41 1014.52 1014.60 1014.62
1011.13 1011.13 1010.91 1010.43 1010.03 1009.76 1009.40 1008.74 1008.63 1007.96 1007.23 1007.02 1006.76 1006.65 1006.79 1006.82 1006.86 1006.86 1006.86 1006.76 1007.35 1006.94 1006.89 1006.94 1007.43 1008.06 1008.64 1008.88 1009.28 1009.32 1009.56 1009.87 1010.66 1010.77 1010.86 1011.32 1011.74 1012.08 1012.66 1012.93 1013.17 1013.42 1013.54 1013.87 1014.00 1014.06 1014.26 1014.46 1014.33
1011.20 1011.38 1010.97 1010.44 1009.65 1009.28 1008.92 1008.59 1008.28 1007.70 1007.36 1007.15 1006.89 1006.66 1006.67 1006.83 1006.86 1007.06 1006.31 1006.33 1006.12 1006.11 1006.04 1006.32 1006.65 1007.41 1008.07 1008.22 1008.68 1008.92 1009.08 1009.42 1009.95 1010.26 1010.67 1010.88 1011.39 1011.92 1012.06 1012.42 1012.61 1012.82 1013.21 1013.55 1013.66 1013.79 1013.86 1014.14 1014.24
1011.73 1011.96 1011.58 1010.18 1009.59 1008.95 1009.09 1008.78 1007.82 1007.48 1007.68 1007.74 1007.43 1007.23 1006.69 1006.04 1006.21 1006.09 1006.26 1006.28 1005.66 1005.94 1005.96 1005.90 1006.12 1006.66 1007.22 1007.75 1008.11 1008.63 1008.79 1009.26 1009.53 1009.82 1010.22 1010.71 1010.99 1011.75 1012.23 1012.69 1012.34 1012.00 1012.72 1013.19 1013.51 1013.78 1013.68 1013.67 1014.00
1012.78 1012.64 1012.06 1010.94 1009.71 1009.52 1009.36 1009.34 1008.21 1007.72 1007.81 1007.94 1007.84 1007.61 1007.41 1006.69 1005.88 1005.29 1005.24 1005.34 1005.52 1005.52 1005.77 1006.07 1005.88 1005.94 1006.53 1007.03 1007.61 1008.06 1008.47 1008.73 1008.96 1009.26 1009.56 1009.76 1009.59 1010.45 1011.36 1012.20 1012.11 1012.55 1012.85 1013.24 1013.43 1013.65 1014.04 1013.80 1013.80
1013.11 1012.90 1012.29 1011.64 1010.30 1009.97 1009.92 1009.84 1009.11 1008.47 1008.30 1008.06 1007.91 1007.57 1007.42 1007.04 1006.16 1005.46 1005.11 1005.28 1005.24 1005.17 1005.43 1005.81 1005.95 1005.71 1005.86 1006.73 1007.34 1007.98 1008.42 1008.65 1008.64 1008.82 1008.90 1009.01 1009.96 1009.51 1010.20 1010.84 1011.67 1012.08 1012.51 1012.78 1013.25 1013.56 1013.56 1013.74 1013.59
1012.58 1012.62 1012.35 1011.28 1010.04 1010.43 1009.92 1009.72 1009.14 1008.49 1008.42 1008.11 1007.88 1007.58 1007.06 1006.72 1005.99 1005.61 1005.25 1004.83 1005.46 1005.56 1005.24 1005.34 1005.78 1005.84 1005.98 1006.42 1007.15 1007.67 1007.82 1008.01 1008.24 1008.51 1008.24 1008.46 1008.71 1009.06 1010.17 1010.12 1010.70 1011.22 1011.88 1012.16 1012.52 1013.36 1013.45 1013.41 1013.26
1012.29 1012.33 1011.89 1010.94 1009.85 1010.31 1009.68 1009.44 1008.93 1008.67 1008.11 1007.52 1007.43 1007.37 1007.07 1006.70 1006.13 1005.74 1005.41 1005.05 1005.08 1005.31 1005.37 1005.24 1005.10 1005.24 1005.55 1005.41 1005.87 1006.40 1006.98 1007.51 1007.66 1007.99 1008.32 1008.09 1008.42 1009.55 1009.81 1010.22 1009.58 1010.41 1011.73 1011.58 1012.11 1013.12 1013.09 1013.58 1013.24
1011.55 1011.78 1011.40 1011.04 1010.08 1009.82 1009.69 1009.38 1008.80 1008.03 1007.60 1007.18 1007.07 1006.87 1006.77 1006.70 1006.51 1005.76 1005.43 1005.03 1004.92 1004.88 1004.87 1005.01 1004.72 1004.96 1005.30 1005.24 1005.76 1006.50 1006.94 1007.45 1007.87 1007.82 1007.61 1007.65 1007.94 1008.40 1008.74 1009.46 1009.69 1010.92 1012.25 1010.53 1011.16 1012.92 1013.23 1014.10 1013.17
1010.80 1010.20 1010.56 1010.84 1011.01 1010.86 1010.12 1009.20 1008.74 1007.96 1007.54 1007.18 1006.70 1006.72 1006.52 1006.31 1005.85 1005.71 1005.34 1004.98 1004.56 1004.09 1004.15 1004.37 1004.52 1004.49 1004.48 1005.01 1005.41 1005.65 1005.84 1006.64 1006.70 1006.86 1007.21 1007.13 1007.51 1008.06 1008.61 1008.77 1008.60 1010.34 1011.54 1010.12 1011.24 1011.26 1012.67 1013.58 1012.52
1009.79 1009.58 1010.27 1010.72 1011.11 1011.21 1010.67 1010.45 1008.54 1007.96 1007.62 1007.10 1006.54 1006.44 1006.39 1006.38 1006.05 1005.50 1005.02 1004.40 1003.92 1003.65 1003.46 1003.59 1004.08 1004.34 1004.38 1004.36 1004.44 1004.95 1005.61 1006.26 1006.56 1006.76 1007.04 1007.43 1007.51 1007.58 1007.97 1008.47 1008.86 1009.88 1011.03 1010.46 1009.43 1009.24 1010.70 1013.18 1013.02
1008.94 1009.64 1010.48 1011.15 1011.75 1011.84 1010.82 1010.36 1008.94 1008.31 1007.20 1006.78 1006.50 1006.61 1006.65 1006.41 1005.86 1005.16 1004.34 1003.91 1003.51 1003.09 1003.00 1003.02 1003.39 1003.84 1004.30 1004.18 1004.31 1004.48 1005.07 1005.99 1006.66 1007.06 1007.24 1007.69 1007.80 1007.81 1007.74 1008.35 1008.92 1009.13 1009.34 1009.20 1009.49 1009.74 1011.46 1011.40 1012.12
1008.93 1010.18 1011.66 1012.12 1012.53 1011.69 1010.88 1010.52 1009.06 1007.85 1007.01 1006.92 1007.10 1006.84 1006.68 1006.43 1006.17 1005.46 1004.72 1004.06 1003.46 1003.16 1002.82 1002.79 1002.87 1003.24 1003.54 1004.04 1004.26 1004.67 1005.02 1005.47 1006.34 1006.92 1007.44 1007.76 1007.83 1007.64 1007.36 1007.52 1007.72 1008.08 1008.12 1008.63 1008.98 1009.48 1010.34 1010.88 1011.94
1008.79 1010.01 1011.63 1011.96 1012.62 1012.00 1011.38 1010.21 1008.45 1007.38 1007.06 1007.02 1007.11 1007.18 1007.06 1006.59 1005.99 1005.46 1004.82 1004.16 1003.46 1002.92 1002.82 1002.62 1002.65 1003.11 1003.40 1003.58 1004.04 1004.34 1004.96 1005.02 1005.48 1006.14 1007.01 1007.46 1007.65 1007.60 1007.37 1007.27 1007.34 1007.56 1007.86 1007.83 1008.43 1008.57 1008.96 1009.42 1010.68
1008.79 1009.93 1010.49 1011.78 1012.39 1012.46 1011.41 1009.88 1008.54 1007.67 1007.28 1007.45 1007.44 1007.34 1007.37 1007.12 1006.56 1005.65 1004.69 1004.18 1003.23 1003.19 1002.65 1002.68 1002.58 1002.69 1003.34 1003.33 1003.29 1003.75 1004.59 1004.83 1004.95 1005.38 1005.96 1006.61 1007.16 1007.42 1007.36 1007.38 1007.32 1007.32 1007.53 1007.76 1008.03 1008.30 1008.64 1009.32 1009.66
1008.48 1009.44 1011.04 1012.40 1013.11 1012.58 1011.30 1010.52 1009.13 1008.18 1008.03 1007.92 1008.06 1007.96 1007.62 1006.99 1006.38 1005.69 1004.91 1004.46 1003.37 1003.14 1003.00 1002.97 1002.74 1002.74 1003.13 1003.39 1003.23 1003.38 1003.60 1003.87 1004.31 1004.83 1005.64 1006.13 1006.36 1006.77 1007.18 1007.21 1007.23 1007.42 1007.68 1007.72 1007.87 1008.08 1008.41 1008.28 1008.48
1009.28 1009.99 1011.33 1012.46 1013.25 1013.18 1012.01 1010.29 1008.89 1008.71 1008.70 1008.80 1008.90 1008.43 1008.07 1007.38 1006.62 1005.57 1004.68 1004.26 1003.97 1003.26 1003.13 1002.87 1002.96 1002.86 1003.13 1003.43 1003.18 1003.30 1003.52 1003.62 1004.01 1004.40 1005.10 1005.59 1005.98 1006.14 1006.33 1006.69 1006.92 1007.16 1007.31 1007.50 1007.59 1007.60 1007.63 1007.40 1007.68
1009.55 1010.11 1011.03 1012.21 1013.22 1013.18 1012.41 1009.87 1008.74 1008.54 1008.68 1008.90 1008.75 1008.49 1007.89 1007.38 1006.60 1005.56 1004.74 1004.03 1003.80 1003.65 1003.62 1003.36 1002.60 1002.78 1002.64 1002.65 1003.36 1003.30 1003.62 1003.85 1004.12 1004.13 1004.62 1005.12 1005.52 1005.69 1005.99 1006.14 1006.27 1006.36 1006.45 1006.54 1006.76 1007.05 1007.32 1007.53 1007.80
Wind_Speed
8 8 2 5 5 5 2 3 0 8 9 1 5 2 5 3 2 4 3 9 6 14 11 15 18 17 17 17 16 16 17 18 18 18 19 18 17 17 15 15 14 14 14 13 12 12 12 12 12
6 5 5 3 5 1 5 1 4 4 6 11 1 2 5 2 2 2 3 6 10 13 9 8 18 17 16 16 17 16 15 16 17 17 17 16 16 15 15 14 14 13 13 12 11 10 11 12 12
4 4 4 4 3 5 4 4 2 6 9 5 3 2 2 3 4 2 0 11 13 12 10 10 15 18 17 17 18 17 18 16 14 16 16 15 15 14 13 13 11 12 12 11 9 9 9 10 10
4 5 5 4 5 5 2 3 3 5 8 5 2 4 1 3 2 2 10 13 11 10 7 15 17 17 19 18 18 19 19 20 17 16 15 15 14 13 11 10 10 10 10 10 9 7 7 8 8
4 3 2 0 4 5 3 3 1 3 5 5 9 2 3 2 3 8 12 12 13 12 7 8 13 15 18 19 17 17 19 20 20 18 17 15 13 12 11 10 10 10 9 10 9 7 5 5 6
3 4 3 3 5 2 4 4 7 4 5 5 8 4 4 2 3 7 11 12 10 11 8 10 12 12 15 16 17 15 15 17 19 19 18 16 14 13 12 11 10 9 9 9 9 8 6 5 3
6 4 4 3 4 6 3 2 3 2 4 1 4 3 5 7 4 7 7 7 11 10 9 10 11 11 13 15 16 15 14 14 15 16 16 15 15 14 13 12 11 10 9 9 9 8 7 6 4
6 4 5 5 4 8 1 3 2 4 4 6 5 4 6 7 2 8 8 8 6 8 9 10 11 7 7 7 15 15 14 14 13 15 15 14 13 13 13 12 12 12 11 10 9 8 7 6 5
3 4 4 4 5 6 4 5 2 3 6 1 4 6 8 2 6 8 7 5 6 6 11 12 13 10 9 7 10 12 15 14 13 12 14 11 6 7 10 10 12 11 11 10 10 9 7 6 5
5 4 9 6 5 8 4 3 7 2 8 4 5 7 5 6 3 9 9 8 8 11 13 12 12 11 7 8 7 6 6 5 4 5 6 4 4 4 6 8 12 10 9 8 8 8 7 6 2
3 5 5 5 6 7 4 6 4 3 9 9 8 2 7 2 3 7 6 9 15 9 10 12 12 11 9 7 7 5 4 5 6 7 7 3 2 4 4 3 3 3 6 2 4 3 2 3 2
3 6 4 3 5 5 5 6 5 7 11 9 10 7 7 9 8 8 9 8 9 12 12 13 13 11 11 5 7 7 6 7 7 9 11 6 3 3 3 3 3 3 2 3 3 2 3 4 4
3 3 3 7 8 7 6 9 10 5 11 13 13 5 10 9 8 8 6 5 5 11 14 16 14 12 11 10 8 8 8 7 9 9 10 8 6 5 3 2 3 3 3 4 4 3 3 3 4
5 3 5 6 7 6 5 7 6 5 4 9 8 9 8 9 11 5 6 8 8 9 14 14 17 15 14 13 12 10 9 10 9 10 11 11 7 6 5 4 5 4 3 3 4 4 4 4 4
0 3 6 5 6 6 5 8 6 7 6 9 10 10 8 9 9 11 14 12 13 10 11 16 17 16 16 16 13 10 9 9 9 9 8 8 7 7 7 6 6 6 3 5 4 4 3 3 4
3 4 2 6 3 7 7 8 11 4 2 8 10 9 12 14 11 10 9 10 9 5 10 13 12 16 15 14 11 9 8 8 8 7 6 7 6 4 4 5 7 5 4 5 3 3 3 4 4
7 3 2 9 5 3 4 4 6 5 7 9 7 8 8 11 13 11 10 10 10 9 7 7 11 15 16 14 10 9 10 8 8 7 8 11 13 10 6 4 3 2 2 2 3 3 2 2 3
2 2 4 6 6 0 6 9 10 11 4 9 9 9 7 9 13 11 10 5 9 10 8 6 8 10 12 8 5 4 5 7 6 7 7 9 8 10 9 7 5 5 4 3 2 3 4 3 2
2 3 6 9 15 2 9 8 12 10 7 9 8 8 9 7 7 8 9 8 5 9 8 10 8 8 8 6 8 5 9 8 7 6 8 7 5 7 8 8 7 5 7 6 4 3 4 3 2
5 5 8 9 11 6 9 9 9 6 8 8 8 8 9 8 8 9 8 7 7 5 10 7 10 9 11 9 7 4 6 4 5 5 5 6 9 12 9 8 5 4 3 4 5 2 1 2 3
5 5 6 10 6 3 5 6 6 7 4 5 7 9 7 8 10 11 9 10 6 9 9 9 11 9 6 6 6 3 4 3 2 4 7 9 8 7 8 5 5 5 6 4 5 3 1 4 2
5 8 9 6 2 6 3 12 4 6 9 6 10 8 9 10 8 8 10 10 10 12 7 8 9 11 10 10 9 8 7 5 4 5 2 5 7 7 7 7 8 4 1 4 7 4 3 4 6
10 3 6 6 5 2 5 3 4 1 6 10 9 8 9 9 9 11 11 10 11 10 9 9 8 7 7 11 10 8 5 2 3 3 6 3 4 7 8 6 9 15 13 9 4 2 5 4 3
3 2 3 4 3 2 8 6 1 5 7 4 5 7 8 9 12 13 13 10 12 8 10 9 12 10 7 8 8 9 10 7 5 2 2 3 3 4 8 9 10 11 9 9 7 10 17 5 4
4 6 4 5 2 9 3 2 9 6 8 2 7 9 8 9 8 11 14 14 15 9 9 10 13 14 11 9 7 7 8 9 9 7 5 5 2 2 4 3 4 5 9 10 11 11 7 6 8
6 8 6 7 6 12 3 7 8 7 4 5 1 6 8 10 12 12 13 10 10 8 8 9 11 7 8 8 8 7 7 4 5 7 5 5 4 4 4 5 4 5 7 9 9 7 8 13 15
3 4 4 1 2 1 6 7 6 2 1 7 10 7 9 9 10 13 13 10 8 7 7 7 8 8 8 9 8 8 7 7 7 7 5 4 5 4 5 6 5 4 4 6 7 7 9 11 11
5 4 1 2 6 8 4 4 6 6 5 10 13 13 12 11 14 11 9 9 5 3 3 2 3 2 3 5 6 8 10 8 6 6 6 6 5 5 6 5 5 5 4 4 4 3 4 4 4
2 1 4 2 4 4 4 5 6 5 6 8 9 10 10 12 13 13 11 6 8 5 6 4 5 6 7 7 6 5 6 6 6 6 6 6 5 6 6 6 6 6 7 6 5 4 1 3 3
2 6 7 5 5 4 3 7 6 8 8 5 8 8 9 10 12 12 12 7 7 5 6 8 8 8 8 6 3 7 3 4 6 7 7 6 7 5 5 5 5 5 5 4 4 3 2 1 2
Wind_Direction
320 322 10 33 45 63 247 256 248 351 346 242 309 71 108 100 112 216 321 165 144 149 156 150 150 148 146 140 133 130 126 126 130 130 131 135 138 142 147 147 148 148 147 147 149 142 134 127 120
322 348 35 71 88 67 261 143 357 292 262 309 246 165 60 89 156 117 102 159 154 143 144 150 146 144 145 139 135 133 130 130 133 133 136 139 143 148 150 150 152 155 152 151 149 143 137 130 126
345 35 71 82 119 191 233 142 248 299 304 320 353 75 59 321 325 178 57 139 140 143 140 154 149 144 144 143 140 140 138 135 136 137 141 147 149 151 151 153 158 158 156 152 149 145 132 127 126
30 11 39 96 215 264 213 341 29 342 318 355 311 38 345 239 255 59 124 127 132 136 143 159 156 151 146 147 147 147 148 144 145 145 148 152 151 149 153 157 160 163 160 154 150 141 137 135 136
39 55 77 160 248 262 284 312 33 15 290 313 337 283 321 28 56 123 129 139 143 150 135 154 157 156 150 149 151 154 154 149 149 150 152 152 153 156 159 165 172 172 164 160 154 148 142 141 138
48 101 87 221 257 237 310 311 337 62 293 337 347 305 240 286 170 163 145 144 141 144 143 159 161 164 154 153 152 157 160 155 154 155 157 157 162 164 167 175 179 181 174 166 159 159 162 159 155
117 95 184 210 262 292 198 315 7 27 266 269 264 221 283 300 218 136 127 126 135 137 146 166 170 168 165 161 157 160 165 167 161 158 160 163 167 169 175 182 185 187 182 172 166 171 176 174 178
105 95 135 227 228 274 197 352 301 331 300 317 16 262 265 241 53 129 113 108 114 138 155 171 177 163 157 172 165 165 172 173 173 165 166 170 175 177 185 189 193 191 187 178 179 184 185 189 205
123 76 198 227 200 241 334 2 232 308 278 20 268 268 244 68 97 105 107 103 126 153 170 180 185 174 165 163 177 172 179 180 182 180 176 175 177 186 195 200 204 199 194 187 186 190 190 202 229
108 134 219 201 215 265 264 248 293 315 303 284 305 328 17 32 338 160 163 171 177 178 179 182 188 186 159 170 174 162 183 183 181 183 190 182 185 193 191 208 214 212 202 200 196 198 200 207 215
147 208 209 221 234 261 247 287 238 233 279 251 266 269 280 223 251 225 198 195 196 174 173 184 182 183 171 178 175 177 173 184 203 199 203 199 208 198 209 204 210 193 212 191 206 215 233 228 217
164 238 199 263 238 266 239 260 272 199 246 254 256 216 229 238 220 222 194 199 182 183 179 176 178 176 182 171 185 178 189 182 196 210 203 195 187 230 234 230 214 198 165 175 196 209 226 251 250
169 254 283 260 277 252 268 244 249 260 261 263 267 253 232 225 226 235 249 298 199 195 186 179 175 181 178 184 184 190 194 200 198 198 206 198 190 201 201 243 259 227 169 173 194 201 229 243 256
193 258 272 288 258 244 237 260 143 283 265 274 279 271 224 242 208 229 231 229 219 199 196 180 182 183 180 186 196 193 192 197 206 207 204 197 197 195 202 213 229 246 192 175 194 189 196 231 238
240 309 329 238 249 250 157 296 222 253 276 276 287 292 280 233 238 227 216 212 209 215 191 184 185 183 190 196 195 192 197 196 200 208 205 195 195 208 207 211 219 233 190 183 190 207 191 207 236
43 49 323 273 240 260 135 277 293 283 205 275 282 283 286 279 244 226 214 236 217 219 194 194 187 186 192 198 193 197 192 197 204 191 174 181 178 216 239 255 243 220 193 178 190 211 214 201 211
7 243 253 307 237 258 146 286 274 315 329 309 298 284 277 281 290 275 244 206 224 219 201 207 194 183 194 200 198 196 189 193 199 186 194 204 183 179 187 215 268 277 244 193 188 191 254 237 233
190 266 250 248 284 112 300 247 271 285 302 283 294 300 294 274 266 283 305 262 235 219 207 197 211 207 187 192 176 161 165 199 194 204 201 186 218 184 191 192 199 197 223 189 175 201 198 234 251
237 235 251 263 274 211 247 248 256 261 292 281 275 297 305 298 277 286 288 294 211 252 212 203 187 210 181 169 180 175 199 195 201 209 201 191 172 201 215 202 186 189 209 179 164 197 216 247 189
228 260 271 278 266 151 268 259 257 247 241 219 239 279 281 299 302 292 297 293 272 224 240 238 209 183 201 188 191 159 168 201 215 176 192 184 183 199 197 214 178 143 237 158 139 211 38 279 186
238 195 239 231 312 284 286 284 248 257 240 268 256 243 274 261 280 288 294 281 270 255 216 220 208 198 198 177 123 93 93 85 136 194 209 199 193 211 184 146 114 152 236 103 100 201 172 262 276
254 208 247 261 316 262 124 287 246 252 257 254 269 268 262 281 282 267 271 272 265 255 213 208 205 194 190 177 175 173 173 162 187 175 190 173 187 199 183 165 131 136 191 226 180 142 208 253 308
228 222 221 243 237 48 288 291 261 192 268 262 262 279 282 289 289 290 281 259 251 251 229 205 196 206 196 185 184 172 158 99 137 141 134 193 217 216 207 188 202 209 227 243 226 129 302 237 270
224 264 51 60 105 209 234 211 157 211 230 296 301 324 314 312 310 295 284 279 270 241 225 197 185 198 205 184 174 166 159 151 133 141 172 218 221 224 220 199 195 189 192 196 211 196 227 200 224
116 73 314 318 305 256 238 247 231 246 267 276 308 306 319 318 304 306 306 303 293 271 226 212 193 194 182 177 166 164 161 156 156 158 170 182 238 272 261 232 212 203 185 186 183 185 199 198 244
186 159 175 249 256 284 232 252 245 225 269 274 266 278 314 319 327 323 305 291 281 264 235 212 194 174 173 163 173 169 174 167 166 161 162 174 192 208 237 237 219 212 224 199 200 200 212 212 220
218 174 197 256 235 25 218 292 303 267 327 340 328 335 316 312 312 311 314 304 312 283 215 190 165 166 189 192 169 168 183 184 175 171 155 167 168 200 213 214 196 198 202 210 201 215 209 205 213
176 168 148 27 303 266 243 239 231 288 325 335 331 320 316 309 312 305 301 310 305 319 327 353 62 187 225 207 198 191 190 176 167 147 177 191 188 188 186 174 163 156 160 154 152 160 211 185 219
305 255 55 134 147 259 306 249 223 211 257 274 291 292 293 307 316 310 292 284 308 325 308 244 246 212 228 234 224 199 198 181 174 171 184 192 185 187 179 175 165 159 153 150 143 131 90 38 351
267 220 170 184 226 229 251 252 247 270 287 300 283 295 306 307 308 306 291 273 279 276 301 276 216 214 227 220 213 208 225 195 195 188 186 190 208 185 192 182 171 162 158 149 144 155 166 202 246